TimeEST,TemperatureF,Dew PointF,Humidity,Sea Level PressureIn,VisibilityMPH,Wind Direction,Wind SpeedMPH,Gust SpeedMPH,PrecipitationIn,Events,Conditions,WindDirDegrees,DateUTC
12:15 AM,53.6,51.8,94,29.63,5.0,WSW,10.4,-,N/A,,Overcast,240,2012-12-04 05:15:00
12:35 AM,53.6,51.8,94,29.64,5.0,WSW,9.2,-,N/A,,Overcast,240,2012-12-04 05:35:00
12:54 AM,51.8,51.8,100,29.65,5.0,West,12.7,-,N/A,,Mostly Cloudy,270,2012-12-04 05:54:00
1:15 AM,51.8,48.2,88,29.66,10.0,West,10.4,-,N/A,,Scattered Clouds,280,2012-12-04 06:15:00
1:35 AM,48.2,46.4,93,29.68,7.0,West,8.1,-,N/A,,Scattered Clouds,270,2012-12-04 06:35:00
1:54 AM,48.2,46.4,93,29.69,10.0,West,8.1,-,N/A,,Clear,260,2012-12-04 06:54:00
2:15 AM,46.4,44.6,93,29.70,10.0,West,9.2,-,N/A,,Clear,260,2012-12-04 07:15:00
2:34 AM,46.4,44.6,93,29.72,10.0,WSW,6.9,-,N/A,,Scattered Clouds,250,2012-12-04 07:34:00
2:55 AM,46.4,42.8,87,29.73,10.0,WSW,11.5,-,N/A,,Scattered Clouds,240,2012-12-04 07:55:00
3:15 AM,44.6,42.8,93,29.73,10.0,SW,9.2,-,N/A,,Clear,220,2012-12-04 08:15:00
3:55 AM,42.8,39.2,87,29.75,10.0,SW,10.4,-,N/A,,Clear,220,2012-12-04 08:55:00
4:15 AM,42.8,39.2,87,29.75,10.0,SW,10.4,-,N/A,,Clear,220,2012-12-04 09:15:00
4:34 AM,41.0,39.2,93,29.75,10.0,SSW,9.2,-,N/A,,Clear,210,2012-12-04 09:34:00
4:55 AM,42.8,39.2,87,29.75,10.0,SW,12.7,-,N/A,,Clear,220,2012-12-04 09:55:00
5:15 AM,41.0,37.4,87,29.76,10.0,SW,9.2,-,N/A,,Clear,220,2012-12-04 10:15:00
5:35 AM,39.2,37.4,93,29.76,10.0,SW,13.8,-,N/A,,Clear,220,2012-12-04 10:35:00
5:55 AM,39.2,37.4,93,29.76,10.0,SW,12.7,-,N/A,,Clear,220,2012-12-04 10:55:00
6:14 AM,39.2,37.4,93,29.76,10.0,SW,9.2,-,N/A,,Clear,220,2012-12-04 11:14:00
6:35 AM,39.2,35.6,87,29.77,10.0,SW,9.2,-,N/A,,Clear,230,2012-12-04 11:35:00
6:55 AM,39.2,35.6,87,29.78,10.0,SW,9.2,-,N/A,,Clear,220,2012-12-04 11:55:00
7:14 AM,37.4,35.6,93,29.79,10.0,SW,10.4,-,N/A,,Clear,220,2012-12-04 12:14:00
7:35 AM,37.4,35.6,93,29.80,10.0,SW,10.4,-,N/A,,Clear,220,2012-12-04 12:35:00
7:55 AM,37.4,35.6,93,29.80,10.0,SSW,10.4,-,N/A,,Clear,210,2012-12-04 12:55:00
8:14 AM,37.4,35.6,93,29.81,10.0,SSW,11.5,-,N/A,,Clear,210,2012-12-04 13:14:00
8:35 AM,37.4,33.8,87,29.83,10.0,SW,10.4,-,N/A,,Clear,220,2012-12-04 13:35:00
8:55 AM,37.4,35.6,93,29.83,10.0,SSW,10.4,-,N/A,,Clear,210,2012-12-04 13:55:00
9:14 AM,37.4,35.6,93,29.84,10.0,SW,9.2,-,N/A,,Clear,220,2012-12-04 14:14:00
9:35 AM,37.4,35.6,93,29.84,10.0,SW,6.9,-,N/A,,Clear,220,2012-12-04 14:35:00
9:55 AM,37.4,35.6,93,29.85,10.0,SW,9.2,-,N/A,,Clear,230,2012-12-04 14:55:00
10:15 AM,39.2,35.6,87,29.85,10.0,SW,9.2,-,N/A,,Clear,230,2012-12-04 15:15:00
10:35 AM,39.2,35.6,87,29.85,10.0,WSW,12.7,17.3,N/A,,Clear,250,2012-12-04 15:35:00
10:55 AM,39.2,33.8,81,29.85,10.0,WSW,15.0,19.6,N/A,,Clear,250,2012-12-04 15:55:00
11:15 AM,41.0,33.8,76,29.85,10.0,West,11.5,17.3,N/A,,Clear,260,2012-12-04 16:15:00
11:35 AM,41.0,33.8,76,29.84,10.0,West,13.8,21.9,N/A,,Clear,270,2012-12-04 16:35:00
11:54 AM,41.0,32.0,70,29.84,10.0,West,17.3,-,N/A,,Clear,270,2012-12-04 16:54:00
12:15 PM,41.0,32.0,70,29.84,10.0,West,12.7,-,N/A,,Clear,270,2012-12-04 17:15:00
12:35 PM,42.8,32.0,66,29.84,10.0,West,15.0,18.4,N/A,,Mostly Cloudy,270,2012-12-04 17:35:00
1:15 PM,37.4,30.2,75,29.85,10.0,WNW,11.5,-,N/A,,Overcast,300,2012-12-04 18:15:00
1:35 PM,37.4,30.2,75,29.86,10.0,WNW,16.1,21.9,N/A,,Overcast,300,2012-12-04 18:35:00
1:54 PM,35.6,28.4,75,29.88,10.0,WNW,12.7,21.9,N/A,,Overcast,290,2012-12-04 18:54:00
2:15 PM,35.6,28.4,75,29.88,10.0,WNW,10.4,20.7,N/A,,Overcast,300,2012-12-04 19:15:00
2:35 PM,33.8,28.4,81,29.89,10.0,WNW,12.7,21.9,N/A,,Overcast,290,2012-12-04 19:35:00
2:54 PM,33.8,26.6,75,29.91,10.0,WNW,11.5,17.3,N/A,,Overcast,290,2012-12-04 19:54:00
3:15 PM,33.8,26.6,75,29.91,10.0,WNW,10.4,19.6,N/A,,Overcast,300,2012-12-04 20:15:00
3:34 PM,33.8,24.8,70,29.92,10.0,West,16.1,20.7,N/A,,Overcast,280,2012-12-04 20:34:00
3:55 PM,32.0,24.8,75,29.94,10.0,West,16.1,25.3,N/A,,Overcast,280,2012-12-04 20:55:00
4:15 PM,30.2,23.0,75,29.96,10.0,NW,15.0,23.0,N/A,,Overcast,310,2012-12-04 21:15:00
4:34 PM,30.2,21.2,69,29.98,10.0,WNW,13.8,24.2,N/A,,Overcast,300,2012-12-04 21:34:00
4:55 PM,30.2,21.2,69,29.99,10.0,WNW,12.7,24.2,N/A,,Overcast,290,2012-12-04 21:55:00
5:15 PM,28.4,19.4,69,30.00,10.0,WNW,19.6,26.5,N/A,,Overcast,300,2012-12-04 22:15:00
5:34 PM,28.4,17.6,64,30.02,10.0,West,20.7,26.5,N/A,,Mostly Cloudy,280,2012-12-04 22:34:00
5:55 PM,28.4,19.4,69,30.03,10.0,West,17.3,25.3,N/A,Snow,Light Snow,280,2012-12-04 22:55:00
6:15 PM,26.6,21.2,80,30.04,4.0,WNW,15.0,26.5,N/A,Snow,Light Snow,300,2012-12-04 23:15:00
6:34 PM,26.6,23.0,86,30.04,7.0,West,12.7,18.4,N/A,Snow,Light Snow,280,2012-12-04 23:34:00
6:55 PM,26.6,23.0,86,30.05,7.0,West,16.1,25.3,N/A,Snow,Light Snow,270,2012-12-04 23:55:00
7:15 PM,26.6,23.0,86,30.05,5.0,West,13.8,19.6,N/A,Snow,Light Snow,280,2012-12-05 00:15:00
7:34 PM,26.6,23.0,86,30.05,7.0,West,13.8,17.3,N/A,Snow,Light Snow,260,2012-12-05 00:34:00
7:55 PM,26.6,21.2,80,30.06,5.0,WNW,15.0,24.2,N/A,Snow,Light Snow,290,2012-12-05 00:55:00
8:15 PM,26.6,21.2,80,30.07,2.0,West,12.7,23.0,N/A,Snow,Light Snow,270,2012-12-05 01:15:00
8:34 PM,24.8,21.2,86,30.07,4.0,West,13.8,17.3,N/A,Snow,Light Snow,280,2012-12-05 01:34:00
8:55 PM,24.8,21.2,86,30.08,10.0,West,11.5,-,N/A,,Overcast,270,2012-12-05 01:55:00
9:14 PM,24.8,21.2,86,30.08,7.0,West,10.4,-,N/A,,Overcast,260,2012-12-05 02:14:00
9:34 PM,24.8,21.2,86,30.08,10.0,West,8.1,16.1,N/A,Snow,Light Snow,270,2012-12-05 02:34:00
9:55 PM,26.6,21.2,80,30.09,2.0,West,10.4,18.4,N/A,Snow,Light Snow,270,2012-12-05 02:55:00
10:14 PM,24.8,21.2,86,30.09,10.0,West,10.4,-,N/A,Snow,Light Snow,260,2012-12-05 03:14:00
10:35 PM,24.8,23.0,93,30.10,5.0,West,9.2,-,N/A,Snow,Light Snow,260,2012-12-05 03:35:00
10:55 PM,26.6,23.0,86,30.10,2.5,West,10.4,-,N/A,Snow,Light Snow,270,2012-12-05 03:55:00
11:14 PM,26.6,23.0,86,30.10,7.0,West,11.5,-,N/A,Snow,Light Snow,270,2012-12-05 04:14:00
11:35 PM,26.6,23.0,86,30.11,3.0,West,11.5,18.4,N/A,Snow,Light Snow,270,2012-12-05 04:35:00
11:55 PM,26.6,24.8,93,30.12,2.0,West,10.4,-,N/A,Snow,Light Snow,270,2012-12-05 04:55:00